Other Public Products
Issued by NWS Grand Forks, ND

Home | Current Version | Previous Version | Graphics & Text | Print | Product List | Glossary On
Versions: 1 2 3 4 5 6 7 8 9 10 11 12 13 14 15 16 17 18 19 20 21 22 23 24 25 26 27 28 29 30 31 32 33 34 35 36 37 38 39 40 41 42 43 44 45 46 47 48 49 50
000
FPUS83 KFGF 261410
OPUFGF
PRAIRIE TO PINES WEATHER ROUNDUP
NATIONAL WEATHER SERVICE EASTERN NORTH DAKOTA/GRAND FORKS ND
800 AM CST SUN FEB 26 2017

 **SATELLITE DATA USED TO AUGMENT SKY COVER AT AUTOMATED STATIONS**
 *****  WEATHER ACROSS EASTERN NORTH DAKOTA  *****

CITY           SKY/WX    TMP DP  RH WIND       PRES   REMARKS
GRAND FORKS    FAIR       2  -5  72 W8        29.81R WCI -12
GRAND FORKS AF FAIR       3  -1  83 W8        29.81R WCI -10
GRAND CITY NWS NOT AVBL
BUXTON         NOT AVBL
DEVILS LAKE    FOG       -8  -9  92 W5        29.77R VSB 1/4 WCI -19
FARGO          MOCLDY    10   6  84 MISG      29.81R
WAHPETON ARPT  CLOUDY    14  12  92 N9        29.80R WCI   2
$$

 *****  WEATHER ACROSS CENTRAL AND WESTERN NORTH DAKOTA  *****

CITY           SKY/WX    TMP DP  RH WIND       PRES   REMARKS
JAMESTOWN      FAIR      12   7  80 NW5       29.77R WCI   4
BISMARCK       CLOUDY    13   9  84 E5        29.78S WCI   5
MINOT          CLOUDY     1  -4  79 SW12      29.73R WCI -16
MINOT AFB      FAIR      -1  -5  83 SW5       29.74R WCI -11
GARRISON         N/A      5   0  79 CALM      29.73R
WILLISTON      CLOUDY    11   8  88 N5        29.71S FOG     WCI   3
DICKINSON      CLOUDY    17  15  92 S8        29.65S WCI   7
HETTINGER      FAIR       8   5  87 CALM      29.69S
$$

 *****  OTHER OBSERVATIONS NORTHEAST NORTH DAKOTA  *****

CITY           SKY/WX    TMP DP  RH WIND       PRES   REMARKS
WALHALLA       NOT AVBL
LANGDON        NOT AVBL
CAVALIER         N/A      3   0  85 W6        29.80R WCI  -8
GRAFTON        FAIR       5   0  78 MISG      29.82R
CANDO          NOT AVBL
FORT TOTTEN      N/A      1  -1  92 CALM      29.95S
ROLLA          FAIR       0  -2  92 W9        29.72S WCI -16
RUGBY          FOG       -6  -9  84 CALM      29.76R VSB<1/4
 ***** THE ABOVE OBSERVATIONS ARE NON NWS ARE NOT QUALITY
        CONTROLLED AND MAY MIS-REPORT RAIN FOR SNOW...
$$

 *****  OTHER OBSERVATIONS SOUTHEAST NORTH DAKOTA *****

CITY           SKY/WX    TMP DP  RH WIND       PRES   REMARKS
COOPERSTOWN    FAIR      -6  -9  84 NW5       29.78R FOG     WCI -17
VALLEY CITY    PTSUNNY   10  10 100 N3        29.79S
OAKES          NOT AVBL
GWINNER        PTSUNNY   18  12  79 N10       29.80R WCI   6
SHEYENNE NWR     N/A     13   7  78 N6        29.95S WCI   4
BUFFALO        NOT AVBL
WYNDMERE       NOT AVBL
 ***** THE ABOVE OBSERVATIONS ARE NON NWS ARE NOT QUALITY
       CONTROLLED AND MAY MIS-REPORT RAIN FOR SNOW...
$$

  *****  WEATHER ACROSS NORTHERN MINNESOTA  *****

CITY           SKY/WX    TMP DP  RH WIND       PRES   REMARKS
FLAG ISLAND    FAIR       1  -2  85 NW6       29.72S WCI -10
WARROAD        FAIR       1  -2  85 W3        29.74S
ROSEAU         FAIR       5   1  85 W6        29.75R WCI  -6
HALLOCK        FAIR       1   0  92 CALM      29.79R
THF RVR FALLS    N/A    N/A N/A N/A MISG        N/A
HALSTAD          N/A      7   3  83 NW7         N/A  WCI  -4
FOSSTON        FAIR       3   1  92 NW5       29.76R WCI  -6
BAUDETTE       FAIR       4  -3  73 NW8       29.72R WCI  -9
WASKISH        FAIR       7   1  78 CALM      29.73R
CROOKSTON      FAIR       7   3  85 NW3       29.81R
$$
  *****  WEATHER ACROSS CENTRAL AND WEST MINNESOTA  *****

CITY           SKY/WX    TMP DP  RH WIND       PRES   REMARKS
BEMIDJI        LGT SNOW   9   6  84 N6        29.71R WCI   0
PARK RAPIDS    CLOUDY    16   7  67 N9        29.69R WCI   4
WADENA         CLOUDY    18  18 100 NW5       29.69R WCI  11
DETROIT LAKES  FAIR      14  10  85 NW10      29.74R WCI   1
MOORHEAD       FAIR       9   7  92 N9        29.81R WCI  -5
FERGUS FALLS   FAIR      12  12 100 N9        29.80R WCI   0
ELBOW LAKE     FAIR      15  13  95 NW7       29.74R WCI   5
MORRIS MN      CLOUDY    23  21  93 NW15      29.74R WCI  10
STAPLES        CLOUDY    19  19 100 W8        29.67R WCI   9
WHEATON        FAIR      16  12  86 NW12      29.81R WCI   3
$$
  *****  WEATHER ELSEWHERE ACROSS MINNESOTA  *****

CITY           SKY/WX    TMP DP  RH WIND       PRES   REMARKS
DULUTH         LGT SNOW  24  22  91 SW8       29.61S FOG     WCI  15
INTRNTL FALLS  FAIR       7   1  76 W7        29.69R WCI  -5
ELY            LGT SNOW  14  10  85 NW3       29.63R
CLOQUET        LGT SNOW  25  21  86 S5        29.62S WCI  19
BRAINERD       CLOUDY    23  21  92 W9        29.67R FOG     WCI  13
HIBBING        SNOW      14  11  87 NW13      29.64R VSB 1/2 WCI   0
ALEXANDRIA     CLOUDY    26  23  88 W17       29.70R WCI  13
SAINT CLOUD    CLOUDY    25  22  88 SW8       29.70R WCI  16
MINNEAPOLIS    PTSUNNY   24  18  77 SW8       29.75R WCI  15
$$

  *****  WEATHER ACROSS SOUTH DAKOTA  *****

CITY           SKY/WX    TMP DP  RH WIND       PRES   REMARKS
SIOUX FALLS    FAIR      20  15  81 W9        29.79R WCI   9
BROOKINGS      FAIR      25  22  88 W10       29.76R WCI  15
WATERTOWN      MOCLDY    23  20  88 NW10      29.74R WCI  12
HURON          FAIR      23  21  92 NW6       29.81R WCI  16
SISSETON         N/A     17  14  88 N16       29.78R WCI   2
ABERDEEN       FAIR      17  12  80 N13       29.80R WCI   4
MITCHELL       FAIR      23  19  85 W10       29.83R WCI  12
PIERRE         FAIR      19  16  88 W6        29.79R WCI  11
MOBRIDGE       FAIR      15   9  76 E7        29.74S WCI   5
RAPID CITY     FAIR      18   9  68 W6        29.75R WCI  10
$$

  *****  SOME WEATHER IN NEARBY STATES *****

CITY           SKY/WX    TMP DP  RH WIND       PRES   REMARKS
GLASGOW MT     LGT SNOW  16  13  88 NE6       29.68R FOG     WCI   7
GREAT FALLS MT LGT SNOW  23  20  88 N5        29.72S FOG     WCI  17
CHEYENNE WY    FAIR      15   0  51 SW20      29.74S WCI  -2
SCOTTSBLUFF NE FAIR       7   0  73 NW9       29.83S WCI  -7
OMAHA NE       FAIR      33  21  61 SW9       29.90R
DES MOINES IA  FAIR      31  21  66 SW10      29.90R WCI  22
DAVENPORT IA   FAIR      31  18  58 SW15      29.94R WCI  20
CHICAGO IL     PTSUNNY   30  18  60 S15       29.99F WCI  19
EAU CLAIRE WI  FAIR      22  16  78 SW6       29.74R WCI  14
LA CROSSE WI   FAIR      29  19  66 SE7       29.80R WCI  22
$$

  *****  SOME NATIONAL WEATHER *****

CITY           SKY/WX    TMP DP  RH WIND       PRES   REMARKS
LA GUARDIA NY  CLOUDY    40  20  44 NW24G35   29.96R
RALEIGH NC     FAIR      42  17  36 NW7       30.18R
ATLANTA GA     FAIR      41  21  44 N14       30.21R
NEW ORLEANS LA FAIR      53  40  61 E14G22    30.17R
OKLAHOMA CITY  CLOUDY    40  26  57 S12       29.92R
ALBUQUERQUE NM MOCLDY    34  15  46 N5        29.94R
SALT LAKE CITY FAIR      22  16  78 SE10      29.94S WCI  11
LOS ANGELES CA LGT RAIN  48  42  80 NE8       29.98F
BOISE ID       FAIR      30  17  58 SE16      29.84F WCI  19
SEATTLE WA     LGT RAIN  36  35  96 SE7       29.71F
$$

*** WEATHER ACROSS MANITOBA...SASKATCHEWAN AND ONTARIO ***
                ***ONTARIO***

CITY           SKY/WX    TMP DP  RH WIND       PRES   REMARKS
GERALDTON      FLURRIES   1  -2  85 E2        29.60F
THUNDER BAY    CLOUDY    14  12  92 NW5       29.65R WCI   6
SIOUX LOOKOUT  FLURRIES   5  -2  72 NW13G18   29.63R WCI -12
TORONTO        FLURRIES  28  19  69 W16G24    30.00R WCI  17
BIG TROUT LK   FLURRIES  -6  -9  84 W9        29.58S WCI -22
PICKLE LAKE    FLURRIES   0  -8  71 VRB2      29.57S
DRYDEN         FLURRIES   5   0  78 NW8       29.65R WCI  -8
KENORA         PTCLDY     3   0  85 W3        29.68R
$$
                *** MANITOBA***

CITY           SKY/WX    TMP DP  RH WIND       PRES   REMARKS
BRANDON        PTCLDY    -6 -11  77 W3        29.74S
DAUPHIN        CLOUDY     7   0  72 SW10      29.71S WCI  -8
ISLAND LAKE    CRYSTALS -11 -15  84 W5        29.65S WCI -23
PILOT MOUND      N/A     -4  -8  84 W6          N/A  WCI -16
THE PAS        FLURRIES  -4  -9  77 E3        29.65S
THOMPSON       PTCLDY   -20 -26  76 NW6       29.69R WCI -36
WINNIPEG       PTCLDY     0  -4  85 W9        29.77R WCI -16
LYNN LAKE      FLURRIES -22 -27  76 N5        29.69R WCI -36
CHURCHILL      CRYSTALS -22 -27  76 NW12      29.68S WCI -45
GILLAM         MOCLDY   -20 -26  76 W8        29.66S WCI -39
$$
                ***SASKATCHEWAN***

CITY           SKY/WX    TMP DP  RH WIND       PRES   REMARKS
ESTEVAN        CRYSTALS   5   1  85 SW7       29.71R WCI  -7
KINDERSLEY     CLOUDY    16  10  79 NW10      29.73R WCI   3
LLOYDMINSTER   LGT SNOW  16  10  79 NW15G22   29.72R VSB 1   WCI   1
PRINCE ALBERT  MOCLDY    10   1  67 N7        29.70R WCI   0
REGINA         FLURRIES  16  12  86 W10       29.68R WCI   3
YORKTON        FLURRIES   9   5  85 SW6       29.65R WC



USA.gov is the U.S. government's official web portal to all federal, state and local government web resources and services.